Regional Weather Roundup
Issued by NWS Cleveland, OH

Home | Current Version | Previous Version | Text Only | Print | Product List | Glossary Off
Versions: 1 2 3 4 5 6 7 8 9 10 11 12 13 14 15 16 17 18 19 20 21 22 23 24 25 26 27 28 29 30 31 32 33 34 35 36 37 38 39 40 41 42 43 44 45 46 47 48 49 50

000
ASUS41 KCLE 221810
RWRCLE
OHIO REGIONAL WEATHER ROUNDUP
NATIONAL WEATHER SERVICE WILMINGTON, OH
200 PM EDT TUE JUL 22 2014

NOTE: "FAIR" INDICATES FEW OR NO CLOUDS BELOW 12,000 FEET WITH NO
SIGNIFICANT WEATHER AND/OR OBSTRUCTIONS TO VISIBILITY.

OHZ001>008-015>018-024>027-034-035-043-044-221900-
   NORTHWEST OHIO

CITY           SKY/WX    TMP DP  RH WIND       PRES   REMARKS
DEFIANCE       SUNNY     88  64  44 S10G18    30.04F
FINDLAY        MOSUNNY   88  66  48 S10       30.04F HX  90
TOLEDO EXPRESS MOSUNNY   88  64  44 S12G18    30.04F
TOLEDO METCALF MOSUNNY   89  63  41 S13G21    30.05F HX  90
LIMA           SUNNY     87  67  51 SW12G20   30.07F HX  90
$$

OHZ009>014-019>023-028>033-038-089-221900-
   NORTHEAST OHIO

CITY           SKY/WX    TMP DP  RH WIND       PRES   REMARKS
CLE-HOPKINS    MOSUNNY   86  66  51 S12       30.08F
CLE-LAKEFRONT  MOSUNNY   84  71  65 N6        30.04F
CUY CO. ARPT   MOSUNNY   88  72  58 NW6       30.08  HX  94
LORAIN-ELYRIA  MOSUNNY   89  66  46 W8        30.07F HX  91
ASHTABULA      PTSUNNY   84  67  56 NW6       30.08F
AKRON-CANTON   MOSUNNY   86  67  52 W9        30.10F
WOOSTER        SUNNY     86  67  52 SW9       30.09F
MANSFIELD      MOSUNNY   85  67  54 SW5       30.10F
YOUNGSTOWN     PTSUNNY   85  66  53 W8        30.10F
$$

OHZ042-051>053-060>062-070>072-077>081-221900-
  SOUTHWEST OHIO

CITY           SKY/WX    TMP DP  RH WIND       PRES   REMARKS
CINC-COVINGTON MOSUNNY   89  65  44 SW8       30.09F HX  91
CINC-LUNKEN    MOSUNNY   90  66  45 VRB7      30.07F HX  92
HAMILTON       MOSUNNY   89  68  49 W7        30.08F HX  93
DAYTON         MOSUNNY   87  66  49 SW12      30.09F
WRIGHT-PAT AFB MOSUNNY   88  69  54 S8        30.08F HX  92
DAYTON GENERAL PTSUNNY   87  68  52 S10       30.08F HX  90
WILMINGTON     MOSUNNY   87  68  52 SW9       30.09F HX  90
$$

OHZ036-037-039>041-045>050-054>059-063>069-073>076-082>088-221900-
  CENTRAL AND SOUTHEAST OHIO

CITY           SKY/WX    TMP DP  RH WIND       PRES   REMARKS
COLUMBUS       MOSUNNY   89  65  44 SW6       30.08F HX  91
OSU AIRPORT    MOSUNNY   87  67  51 W9        30.08F HX  90
BOLTON FIELD   NOT AVBL
RICKENBACK AFB PTSUNNY   88  63  43 S7        30.08S
NEWARK         SUNNY     86  70  58 SW7       30.08F HX  90
MARION         SUNNY     87  66  49 S10       30.07F
LANCASTER      MOSUNNY   86  69  56 W5        30.09F HX  90
ZANESVILLE     PTSUNNY   85  68  56 S6        30.09F
NEW PHILLY     MOSUNNY   86  71  60 S5        30.09F HX  91
$$



USA.gov is the U.S. government's official web portal to all federal, state and local government web resources and services.